sat.trackr.live / text

‹ back to catalog

STARLINK-11339 [DTC]

NORAD 61691 · 2024-195E

PAYLOAD ACTIVE UNKNOWN

§ Identity

Operator
Country
US
Launch date
2024-10-30
Launch site
AFWTR
Launch vehicle
Mass (kg)
RCS (m²)

Purposes: comms

External: N2YO · Heavens-Above · Gunter

§ Orbital elements

Epoch: 2026-09-21T20:39:48.802464Z

Period
91.74 min
Inclination
53.1583°
Eccentricity
0.0000978
Mean motion
15.69706188 rev/d
Perigee alt
359.1 km
Apogee alt
360.4 km
Semi-major
6,737.9 km
B*
9.8881e-6
RAAN
139.2742°
Arg perigee
82.6926°
Mean anomaly
277.4203°
Rev number
10,984

§ Raw data

STARLINK-11339 [DTC]1 61691U 24195E   26264.86098151  .00000609  00000+0  98881-5 0  99952 61691  53.1583 139.2742 0000978  82.6926 277.4203 15.69706188109843

JSON: /api/v1/satellites/61691 · /tle

For live sub-satellite position, see the globe view (requires WebGL).

§ Visibility from observer

Set your observer location to see the next 7 days of passes ≥ 10°. The values pass through the URL so the page stays shareable.

No JS? Fill the form by hand. The geolocation button needs JavaScript.